Track GONETS-M 9 now! 10-day predictions GONETS-M 9 is classified as:
1 40062U 14036B 25199.84567634 .00000036 00000-0 18618-3 0 9991 2 40062 82.5116 154.7195 0023032 158.9516 201.2517 12.42937570501042